Temperature
8 9 10 11 12 13 13 13 13 13 13 13 13 14 14 13 13 13 13 13 12 12 12 12 12 12 12 12 12 12 12 12 12 12 12 11 11 11 11 11 11 11 11 11
8 9 10 11 11 11 12 12 13 12 12 12 13 13 14 13 13 13 13 12 12 11 11 11 12 12 12 12 12 12 12 12 12 12 12 12 11 11 11 11 11 11 11 11
8 9 10 10 10 10 11 12 12 12 11 12 12 13 13 13 12 11 11 11 11 11 11 11 11 12 12 12 12 12 12 12 12 11 11 11 11 11 11 11 11 10 10 10
8 9 9 9 10 10 10 12 12 11 11 12 12 13 14 14 12 12 11 11 11 10 11 11 11 11 11 12 12 12 11 12 11 11 11 11 11 11 11 11 10 10 10 10
8 8 8 9 10 10 11 11 11 11 11 11 11 12 14 13 13 13 12 11 10 10 10 10 10 11 11 11 11 11 11 11 11 11 11 11 11 11 11 10 10 10 10 9
7 7 8 9 10 10 10 10 10 11 11 10 12 12 13 14 13 13 12 11 10 9 9 9 10 10 10 11 11 11 11 11 11 11 11 11 11 10 10 10 10 10 9 9
6 7 7 8 8 8 9 9 9 9 9 11 12 11 13 13 12 12 11 10 9 9 8 9 9 9 10 10 10 11 11 11 10 10 10 10 10 10 10 10 10 9 9 9
6 7 7 7 8 8 9 10 10 10 10 11 10 11 12 11 10 9 9 8 8 8 8 8 9 9 9 10 10 10 10 10 10 10 10 10 10 10 10 9 9 9 9 9
6 7 7 7 8 8 8 9 10 10 10 10 11 11 10 9 9 8 8 8 8 7 7 8 8 8 8 9 9 9 10 10 10 10 10 9 9 9 9 9 9 9 8 8
6 6 6 7 7 7 9 9 9 9 9 10 11 11 12 10 9 8 8 8 7 6 6 7 7 7 7 8 8 8 9 9 9 9 9 9 9 9 9 9 8 8 8 8
5 5 5 6 7 7 7 8 8 9 10 11 11 12 10 10 9 8 8 6 5 5 5 6 6 6 7 7 7 7 8 8 8 8 8 8 8 8 8 8 8 8 8 7
4 5 5 5 6 6 8 8 8 8 8 9 11 11 8 8 7 7 6 5 4 4 4 4 5 5 6 6 6 7 7 7 8 8 8 8 8 8 7 7 7 7 7 7
4 4 5 5 5 5 6 7 7 7 8 9 10 10 7 7 6 5 5 4 3 3 3 4 4 5 5 5 6 6 6 7 7 7 7 7 7 7 7 7 7 7 6 6
4 3 4 6 6 5 5 5 6 6 7 8 10 9 7 7 6 5 4 3 3 2 3 3 3 4 4 5 5 5 5 6 6 6 6 6 7 6 6 6 6 6 6 6
2 3 3 4 5 5 5 5 5 6 7 8 9 8 7 7 6 5 3 2 2 2 2 2 3 3 4 4 4 5 5 5 5 6 6 6 6 6 6 5 5 5 5 5
1 2 3 3 4 5 4 5 5 6 6 7 7 7 6 5 4 3 3 2 2 1 1 1 2 3 3 4 4 4 4 4 5 5 5 5 5 5 5 5 5 4 4 4
1 1 3 4 3 4 4 4 4 5 5 6 7 6 5 4 4 3 2 2 1 1 1 1 2 3 3 3 4 4 4 4 4 4 4 4 5 5 4 4 4 4 4 4
-0 1 2 3 3 4 4 3 3 3 3 4 4 4 4 4 2 2 2 1 1 1 1 1 2 2 3 3 3 3 3 3 3 3 3 4 4 4 4 4 4 3 3 3
0 1 2 3 3 3 3 2 1 2 2 2 3 3 2 1 1 1 1 1 1 1 1 1 2 2 2 2 2 3 3 3 3 3 3 3 3 3 3 3 3 3 3 2
-0 0 2 2 3 4 3 1 -0 2 3 2 1 1 1 1 4 2 -0 -0 0 0 1 1 1 1 1 2 2 2 2 2 2 2 2 2 2 2 2 2 2 2 2 2
-0 0 1 2 3 3 0 -1 0 3 3 0 0 0 0 1 2 -0 -1 -1 -0 -0 0 0 0 1 1 1 1 1 1 1 1 1 1 1 2 2 2 2 2 2 1 1
-0 1 0 1 2 2 -1 -1 1 0 -1 -1 -1 -1 -1 -2 -2 -2 -2 -1 -1 -1 -1 -0 -0 -0 -0 0 0 1 1 1 1 1 1 1 1 1 1 1 1 1 1 0
-2 -1 -1 -1 -0 -2 -3 -3 -3 -2 -2 -2 -2 -2 -2 -3 -3 -3 -3 -2 -2 -1 -1 -1 -1 -1 -1 -1 -0 -0 -0 -0 -0 0 0 0 0 0 0 0 0 0 -0 -0
-2 -3 -2 -2 -2 -3 -3 -3 -3 -3 -3 -3 -3 -3 -3 -3 -3 -3 -3 -3 -3 -2 -2 -2 -2 -1 -1 -1 -1 -1 -1 -1 -1 -1 -1 -1 -0 -0 -0 -0 -1 -1 -1 -1
-3 -3 -3 -3 -3 -3 -4 -4 -4 -4 -4 -3 -3 -3 -3 -3 -3 -3 -3 -3 -3 -3 -3 -3 -2 -2 -2 -2 -2 -2 -1 -1 -1 -1 -1 -1 -1 -1 -1 -1 -1 -2 -2 -2
-5 -5 -3 -2 -4 -4 -4 -5 -5 -5 -4 -4 -4 -4 -4 -3 -4 -4 -4 -4 -4 -3 -3 -3 -3 -2 -2 -2 -2 -2 -2 -2 -2 -2 -2 -2 -2 -2 -2 -2 -2 -2 -2 -2
Wind_Speed
10 11 15 19 19 11 11 13 13 10 5 9 13 13 10 7 8 9 9 9 10 10 10 9 10 10 11 11 12 12 11 11 10 8 8 7 6 5 5 5 5 6 5 5
9 16 17 14 14 11 11 13 11 6 5 6 8 12 10 9 11 10 11 10 10 9 9 9 10 10 11 12 12 12 12 12 11 8 7 6 6 5 5 5 5 5 5 4
15 9 14 14 14 14 14 14 12 7 4 4 5 9 12 9 9 9 10 10 10 10 10 11 11 11 11 12 13 12 12 12 11 10 7 7 6 5 4 4 4 4 4 4
11 9 12 16 16 15 13 11 11 9 8 5 7 8 10 10 10 10 10 10 10 10 10 10 11 11 12 11 11 12 12 12 11 11 10 11 8 7 6 5 5 5 4 4
8 9 13 16 15 15 9 8 9 10 9 6 8 8 8 8 11 12 11 10 10 9 9 10 10 11 11 10 10 11 12 11 11 11 11 10 8 7 6 6 6 5 4 4
6 4 7 9 9 12 8 9 6 6 6 9 13 12 9 9 11 10 10 9 9 9 8 8 8 8 8 9 9 10 11 11 11 11 11 10 10 9 9 8 7 5 4 3
6 6 4 5 8 10 11 11 6 7 8 9 10 10 9 6 6 8 7 7 7 7 7 8 8 8 8 9 10 10 12 12 11 11 11 10 10 10 10 9 7 6 4 4
8 8 8 7 8 9 15 15 9 8 9 6 8 11 6 1 2 4 4 4 5 6 6 7 8 8 9 9 10 11 12 11 12 11 10 9 9 7 6 7 7 6 5 4
7 6 5 6 5 8 11 12 6 2 3 5 7 5 5 2 2 2 3 4 4 4 5 6 6 7 8 9 10 11 11 11 11 11 10 9 9 7 7 7 6 5 4 4
2 4 5 4 4 4 6 9 5 6 7 8 7 8 6 6 4 3 3 3 2 2 4 4 5 6 7 8 8 9 10 10 10 10 9 7 8 7 6 6 6 5 5 4
2 3 4 5 7 8 7 8 6 6 5 6 7 6 1 3 4 3 2 1 1 2 3 3 4 5 6 7 7 8 8 9 9 9 9 8 7 7 6 5 5 5 4 5
2 2 3 3 1 3 6 10 9 7 5 5 6 3 2 1 2 3 1 1 1 1 2 3 4 5 6 7 7 7 8 8 8 8 8 7 7 6 6 5 5 5 5 4
2 3 4 4 4 4 4 6 7 4 4 6 7 4 2 2 2 2 1 2 2 3 3 4 4 5 5 6 6 6 7 7 7 7 7 7 6 6 6 5 5 4 4 4
1 2 4 6 4 5 6 7 7 6 6 7 9 7 4 2 1 1 1 2 3 3 3 4 4 4 5 5 6 6 6 6 7 7 7 6 6 5 5 5 4 4 4 4
1 1 1 2 2 6 8 10 10 9 8 9 8 8 6 4 3 2 3 3 3 3 3 3 4 3 4 4 5 5 5 5 6 6 6 5 5 4 4 4 4 3 3 3
2 0 1 1 1 3 5 8 11 11 10 8 7 7 4 2 2 3 3 4 4 3 3 3 3 3 4 4 4 4 5 5 6 6 5 4 4 4 4 3 3 3 2 2
1 1 1 2 1 2 4 6 8 8 7 8 9 6 4 4 4 4 5 4 4 4 3 2 3 3 3 3 4 4 5 5 5 5 5 4 4 4 3 3 3 2 2 2
1 1 1 1 2 5 1 0 3 5 5 5 4 3 4 4 3 2 3 4 4 4 3 2 2 2 3 3 3 4 4 5 5 4 4 4 3 3 3 3 2 2 2 2
3 2 1 2 3 2 1 0 1 3 3 2 4 3 2 3 3 2 1 3 3 3 3 2 2 3 4 4 4 4 5 4 4 4 3 2 2 3 2 2 2 1 1 1
0 2 2 2 3 3 1 2 3 2 3 1 2 4 4 5 5 3 2 2 3 3 3 3 4 4 5 4 4 5 5 4 3 3 2 2 2 2 2 2 1 1 1 1
1 1 3 3 3 1 3 4 1 5 1 1 1 2 4 3 1 3 3 3 4 5 5 5 5 5 4 4 4 5 4 3 2 2 2 2 2 2 2 1 1 1 1 0
1 1 2 2 4 2 4 1 1 2 3 1 0 0 1 3 5 5 5 5 6 6 6 5 5 5 4 4 4 5 4 3 2 2 2 2 2 2 1 2 1 1 1 0
1 1 1 1 1 2 2 1 2 2 1 1 1 2 3 4 5 5 5 5 6 6 5 5 5 5 4 4 4 4 3 2 2 2 2 2 2 2 1 1 1 1 1 0
1 1 1 1 1 2 3 3 3 2 2 2 2 2 4 4 5 5 5 5 5 5 5 4 5 5 4 4 4 4 3 2 2 2 2 1 1 2 2 1 1 1 1 1
2 1 1 1 2 2 3 4 3 3 3 3 3 3 3 5 5 5 5 5 4 4 4 4 4 4 4 3 4 4 3 3 2 2 2 1 1 1 1 1 1 1 1 2
2 2 2 1 1 1 2 3 4 3 3 3 3 3 3 4 5 5 4 4 4 4 3 3 4 3 3 3 3 3 3 2 2 2 2 1 1 1 1 1 2 2 2 4
Wind_Direction
187 198 204 201 204 217 202 204 208 207 190 205 219 230 231 219 214 216 213 208 206 208 203 193 190 184 180 178 175 172 168 167 162 158 157 154 153 147 138 131 134 134 131 127
188 213 210 202 202 209 206 206 206 191 174 207 226 240 237 229 225 223 219 214 210 205 200 194 190 184 184 183 181 178 176 173 172 170 165 161 150 147 140 135 132 134 133 133
205 207 198 198 198 203 213 210 202 188 171 203 223 243 229 224 226 228 226 222 215 208 203 197 193 190 188 188 186 183 180 177 176 168 155 143 138 139 148 152 145 141 142 139
219 210 192 196 202 201 213 209 202 188 188 207 207 236 225 213 217 222 221 219 217 213 208 200 196 194 192 191 187 185 180 178 175 170 169 168 170 171 174 167 160 153 152 146
206 201 198 201 202 200 204 185 193 196 205 221 213 232 231 201 222 221 216 217 217 213 209 202 198 197 194 186 183 183 179 178 176 176 176 177 176 172 163 160 161 159 154 153
211 209 206 206 199 195 169 159 164 186 205 226 214 219 236 211 216 211 209 212 213 212 207 205 198 191 186 178 177 177 177 177 176 177 178 178 173 169 164 166 166 166 164 162
205 208 199 190 172 180 179 162 167 189 205 225 193 214 238 222 218 218 213 212 208 204 201 195 190 185 180 177 176 176 175 176 176 177 179 179 175 173 175 173 173 171 172 176
194 200 192 189 190 185 190 186 191 195 204 205 191 219 226 224 236 227 220 214 209 201 199 196 190 186 181 179 176 176 176 176 176 176 177 176 174 175 175 177 176 178 181 183
195 201 182 189 190 179 182 200 212 200 182 202 204 223 247 210 185 180 195 196 199 201 196 194 189 187 182 179 178 177 174 173 175 176 173 173 175 175 174 176 178 180 179 176
194 195 182 173 165 193 198 176 179 191 190 211 211 220 213 183 186 174 174 190 190 189 188 184 184 182 179 177 174 174 173 172 172 172 172 172 174 175 173 174 177 180 179 174
198 186 168 178 193 184 168 184 195 194 225 214 212 210 183 206 202 203 198 167 206 193 179 173 168 168 165 163 164 166 167 166 167 169 169 168 170 170 170 172 177 181 180 179
183 194 185 197 212 209 200 195 191 194 204 223 225 209 72 186 185 188 172 114 113 141 151 146 144 149 153 154 157 161 163 164 166 167 165 166 165 166 169 173 177 181 183 184
161 175 162 162 172 172 191 194 202 201 192 209 217 209 94 106 126 138 128 111 104 111 119 123 128 138 147 149 151 156 159 160 160 162 163 162 164 168 173 175 176 180 183 185
164 189 216 206 189 178 193 200 197 193 210 217 227 225 233 219 179 152 116 112 113 111 117 119 121 124 133 142 144 146 150 153 155 157 159 162 166 171 172 172 174 178 181 188
30 195 199 284 251 194 199 200 202 211 220 224 229 230 233 229 211 182 154 137 125 122 120 117 116 116 118 122 130 136 141 146 149 152 152 155 159 160 162 165 169 172 180 192
11 172 152 268 207 190 205 213 213 220 224 229 232 248 236 202 179 180 175 157 150 151 145 132 122 119 121 123 123 129 135 141 145 145 146 144 145 145 151 158 162 167 180 188
328 168 172 211 208 169 217 217 211 211 222 218 229 234 195 197 190 185 178 171 165 160 154 145 133 130 126 127 129 129 134 134 134 134 134 136 138 137 141 148 155 168 181 188
205 146 144 166 169 209 178 156 216 208 233 240 236 221 210 208 187 177 173 169 162 155 153 147 126 116 110 111 116 118 119 122 120 119 123 127 132 134 135 141 155 169 182 193
223 195 176 186 205 242 234 129 208 213 234 274 233 207 178 150 143 144 129 155 156 151 139 135 130 124 115 108 111 114 111 112 110 108 107 113 129 132 133 137 150 166 181 205
183 208 200 193 207 218 78 356 315 227 231 295 208 190 186 185 204 203 145 130 126 115 113 110 114 114 111 105 107 108 108 109 102 97 96 100 120 135 139 142 148 160 187 212
158 187 212 219 222 242 358 327 246 196 251 27 197 190 186 218 231 123 113 103 106 100 95 97 103 101 98 98 100 99 95 88 80 84 89 86 96 109 121 122 117 138 152 173
235 195 202 217 214 227 5 40 187 330 348 359 83 109 113 94 96 108 110 105 100 95 93 93 94 87 82 83 92 91 77 60 63 79 83 83 84 89 101 102 89 90 123 145
301 311 298 246 260 357 358 323 319 325 335 5 21 80 109 109 112 110 105 104 101 99 94 91 94 87 73 67 75 81 61 51 65 82 82 78 76 75 79 86 69 48 45 328
336 330 234 249 296 317 339 345 1 27 41 33 61 107 122 123 123 117 113 108 105 101 99 98 96 88 73 62 61 65 55 48 66 83 81 78 74 62 51 46 39 19 323 291
318 296 217 242 278 322 357 359 7 38 56 60 59 75 113 128 129 128 121 115 109 102 97 96 94 87 73 62 60 55 51 53 62 67 69 59 50 44 28 7 333 299 280 288
319 277 272 259 297 291 322 349 3 25 38 58 73 72 87 116 127 125 119 116 113 104 96 92 87 82 69 59 50 41 38 48 57 52 38 28 13 4 349 328 323 325 306 316
Height
1466 1467 1462 1461 1463 1463 1464 1467 1468 1470 1475 1478 1476 1476 1477 1481 1483 1483 1485 1486 1488 1490 1494 1496 1499 1502 1505 1509 1512 1515 1518 1521 1524 1527 1529 1532 1534 1536 1538 1539 1540 1541 1541 1542
1464 1460 1459 1462 1465 1466 1466 1466 1467 1472 1476 1477 1476 1475 1475 1478 1479 1480 1482 1483 1486 1488 1491 1493 1496 1499 1502 1505 1509 1512 1515 1518 1522 1525 1528 1530 1532 1534 1536 1537 1538 1539 1540 1540
1455 1455 1459 1462 1464 1465 1465 1465 1466 1470 1476 1476 1477 1473 1471 1474 1476 1478 1479 1481 1483 1484 1486 1489 1492 1495 1498 1502 1505 1508 1512 1515 1519 1522 1525 1528 1530 1532 1534 1535 1536 1537 1538 1538
1455 1456 1457 1458 1460 1462 1463 1464 1467 1470 1472 1472 1474 1468 1462 1466 1471 1474 1475 1477 1479 1481 1483 1485 1488 1491 1494 1498 1502 1505 1509 1512 1515 1519 1522 1524 1526 1528 1530 1532 1534 1535 1535 1536
1453 1454 1455 1455 1456 1460 1461 1465 1467 1469 1470 1474 1473 1472 1457 1464 1465 1467 1470 1472 1475 1477 1479 1481 1484 1487 1491 1494 1498 1501 1505 1509 1512 1515 1519 1522 1524 1526 1528 1530 1531 1532 1533 1534
1453 1455 1455 1454 1457 1460 1462 1466 1469 1470 1471 1474 1465 1466 1455 1455 1456 1460 1465 1468 1471 1473 1475 1478 1481 1484 1487 1490 1494 1497 1501 1505 1508 1512 1515 1518 1521 1523 1525 1526 1528 1529 1530 1531
1452 1453 1454 1455 1456 1460 1459 1462 1469 1472 1471 1462 1459 1462 1453 1451 1456 1459 1462 1465 1468 1470 1472 1474 1477 1479 1482 1486 1489 1493 1497 1501 1504 1508 1511 1514 1517 1520 1521 1523 1525 1526 1527 1528
1447 1448 1451 1452 1451 1453 1454 1453 1456 1457 1456 1453 1463 1456 1451 1456 1459 1460 1462 1464 1465 1467 1469 1471 1473 1476 1478 1482 1485 1489 1493 1497 1500 1504 1507 1511 1514 1516 1518 1520 1522 1523 1524 1525
1443 1445 1448 1450 1451 1451 1453 1452 1451 1453 1454 1456 1452 1453 1454 1457 1458 1460 1461 1462 1463 1465 1466 1468 1470 1473 1475 1478 1482 1485 1489 1493 1496 1500 1504 1507 1510 1512 1514 1516 1518 1520 1521 1521
1447 1447 1447 1449 1451 1452 1450 1451 1456 1456 1454 1448 1446 1447 1443 1452 1455 1458 1459 1460 1462 1463 1464 1466 1468 1470 1472 1475 1479 1482 1486 1489 1493 1496 1500 1503 1506 1508 1511 1513 1514 1516 1517 1518
1448 1449 1449 1448 1447 1447 1451 1454 1452 1450 1448 1443 1443 1442 1446 1449 1453 1456 1458 1460 1461 1462 1463 1464 1465 1467 1470 1473 1476 1479 1482 1486 1489 1493 1496 1499 1502 1504 1507 1509 1511 1512 1513 1514
1448 1448 1447 1449 1450 1449 1447 1447 1449 1450 1453 1446 1439 1445 1451 1452 1455 1457 1458 1460 1460 1461 1462 1462 1464 1466 1468 1470 1473 1476 1479 1483 1486 1489 1493 1496 1498 1501 1503 1505 1507 1508 1509 1510
1449 1449 1446 1447 1452 1452 1451 1449 1451 1451 1450 1447 1442 1445 1452 1454 1456 1457 1458 1459 1460 1461 1461 1462 1463 1465 1467 1469 1471 1474 1477 1480 1483 1486 1490 1492 1495 1497 1499 1501 1503 1504 1505 1506
1448 1449 1444 1437 1436 1444 1448 1451 1452 1451 1448 1445 1440 1444 1451 1453 1455 1457 1459 1459 1460 1461 1461 1462 1463 1464 1466 1468 1470 1472 1475 1478 1481 1484 1487 1489 1492 1494 1496 1498 1499 1500 1501 1502
1449 1447 1446 1443 1442 1443 1444 1447 1449 1449 1446 1444 1440 1445 1448 1452 1455 1457 1459 1460 1460 1461 1462 1462 1463 1464 1466 1467 1469 1471 1474 1476 1478 1481 1484 1486 1488 1491 1492 1494 1496 1497 1498 1498
1451 1449 1448 1447 1445 1444 1446 1446 1446 1447 1447 1445 1446 1448 1451 1454 1457 1458 1459 1460 1460 1461 1461 1462 1463 1464 1465 1467 1469 1470 1472 1475 1477 1479 1481 1483 1485 1487 1489 1491 1492 1493 1494 1494
1453 1452 1447 1443 1446 1444 1445 1447 1446 1446 1446 1446 1444 1447 1452 1454 1456 1457 1458 1459 1460 1460 1461 1462 1462 1463 1465 1467 1468 1470 1472 1474 1475 1477 1479 1481 1483 1485 1486 1488 1489 1490 1490 1491
1455 1452 1449 1446 1447 1444 1447 1450 1449 1449 1450 1449 1449 1450 1452 1453 1456 1457 1458 1459 1459 1460 1460 1461 1462 1463 1465 1466 1468 1470 1471 1473 1474 1476 1477 1479 1481 1482 1484 1485 1486 1487 1487 1488
1453 1452 1448 1446 1442 1441 1448 1451 1451 1449 1449 1451 1450 1451 1453 1455 1455 1457 1458 1458 1459 1459 1460 1461 1462 1463 1464 1466 1467 1469 1470 1472 1473 1474 1476 1477 1479 1480 1481 1482 1483 1483 1484 1485
1453 1453 1450 1446 1440 1438 1447 1452 1452 1452 1448 1451 1451 1451 1452 1453 1451 1455 1457 1457 1458 1459 1460 1461 1462 1463 1464 1466 1467 1468 1469 1471 1472 1473 1475 1476 1477 1478 1479 1480 1480 1481 1481 1481
1454 1452 1450 1446 1443 1443 1454 1454 1452 1450 1447 1452 1452 1451 1452 1451 1451 1454 1455 1456 1457 1458 1459 1460 1462 1463 1464 1465 1467 1468 1469 1470 1471 1472 1473 1474 1475 1476 1477 1477 1478 1478 1478 1479
1454 1450 1451 1448 1444 1448 1456 1453 1453 1452 1453 1452 1452 1452 1452 1452 1452 1453 1455 1455 1456 1457 1459 1461 1462 1463 1465 1466 1467 1467 1469 1470 1471 1471 1472 1473 1473 1474 1474 1475 1475 1476 1476 1476
1459 1458 1455 1455 1455 1457 1457 1456 1455 1454 1454 1453 1453 1453 1452 1452 1453 1454 1455 1456 1457 1458 1460 1461 1462 1463 1465 1466 1467 1467 1468 1469 1470 1470 1471 1471 1472 1472 1473 1473 1473 1473 1474 1474
1460 1462 1460 1459 1458 1458 1457 1456 1455 1454 1454 1453 1453 1453 1452 1452 1453 1454 1455 1456 1457 1459 1460 1461 1463 1464 1465 1466 1467 1467 1468 1468 1469 1469 1470 1470 1470 1471 1471 1471 1471 1471 1471 1471
1463 1462 1459 1458 1459 1458 1457 1457 1456 1455 1454 1454 1453 1453 1453 1453 1454 1455 1455 1457 1458 1459 1461 1462 1463 1464 1465 1466 1467 1467 1467 1468 1468 1468 1469 1469 1469 1469 1469 1470 1470 1469 1469 1469
1464 1463 1459 1456 1459 1459 1459 1458 1457 1456 1455 1454 1453 1453 1454 1454 1454 1455 1456 1457 1459 1460 1461 1462 1464 1464 1465 1466 1466 1466 1467 1467 1467 1467 1467 1467 1467 1467 1467 1467 1467 1467 1467 1467